Year,Month,Day,Hour,Minute,Value (Times are PST for temperature in C)
2016,07,25,00,00,22.10
2016,07,25,00,01,22.10
2016,07,25,00,02,22.10
2016,07,25,00,03,22.10
2016,07,25,00,04,22.00
2016,07,25,00,05,22.00
2016,07,25,00,06,22.00
2016,07,25,00,07,21.90
2016,07,25,00,08,21.90
2016,07,25,00,09,21.90
2016,07,25,00,10,21.90
2016,07,25,00,11,21.90
2016,07,25,00,12,21.80
2016,07,25,00,13,21.80
2016,07,25,00,14,21.80
2016,07,25,00,15,21.80
2016,07,25,00,16,21.80
2016,07,25,00,17,21.70
2016,07,25,00,18,21.70
2016,07,25,00,19,21.70
2016,07,25,00,20,21.70
2016,07,25,00,21,21.60
2016,07,25,00,22,21.60
2016,07,25,00,23,21.60
2016,07,25,00,24,21.60
2016,07,25,00,25,21.50
2016,07,25,00,26,21.50
2016,07,25,00,27,21.50
2016,07,25,00,28,21.40
2016,07,25,00,29,21.40
2016,07,25,00,30,21.40
2016,07,25,00,31,21.30
2016,07,25,00,32,21.30
2016,07,25,00,33,21.30
2016,07,25,00,34,21.30
2016,07,25,00,35,21.20
2016,07,25,00,36,21.20
2016,07,25,00,37,21.20
2016,07,25,00,38,21.10
2016,07,25,00,39,21.10
2016,07,25,00,40,21.10
2016,07,25,00,41,21.10
2016,07,25,00,42,21.10
2016,07,25,00,43,21.00
2016,07,25,00,44,21.00
2016,07,25,00,45,21.00
2016,07,25,00,46,20.90
2016,07,25,00,47,20.90
2016,07,25,00,48,20.90
2016,07,25,00,49,20.90
2016,07,25,00,50,20.90
2016,07,25,00,51,20.90
2016,07,25,00,52,20.90
2016,07,25,00,53,20.90
2016,07,25,00,54,20.90
2016,07,25,00,55,21.00
2016,07,25,00,56,21.00
2016,07,25,00,57,21.00
2016,07,25,00,58,21.00
2016,07,25,00,59,21.00
2016,07,25,01,00,21.00
2016,07,25,01,01,21.00
2016,07,25,01,02,21.00
2016,07,25,01,03,21.00
2016,07,25,01,04,21.00
2016,07,25,01,05,21.00
2016,07,25,01,06,21.00
2016,07,25,01,07,20.90
2016,07,25,01,08,21.00
2016,07,25,01,09,20.90
2016,07,25,01,10,20.90
2016,07,25,01,11,20.90
2016,07,25,01,12,20.90
2016,07,25,01,13,20.90
2016,07,25,01,14,20.90
2016,07,25,01,15,20.90
2016,07,25,01,16,20.90
2016,07,25,01,17,20.90
2016,07,25,01,18,20.90
2016,07,25,01,19,20.90
2016,07,25,01,20,20.90
2016,07,25,01,21,20.90
2016,07,25,01,22,20.90
2016,07,25,01,23,20.90
2016,07,25,01,24,20.90
2016,07,25,01,25,20.90
2016,07,25,01,26,21.00
2016,07,25,01,27,21.00
2016,07,25,01,28,21.00
2016,07,25,01,29,21.10
2016,07,25,01,30,21.10
2016,07,25,01,31,21.20
2016,07,25,01,32,21.20
2016,07,25,01,33,21.20
2016,07,25,01,34,21.30
2016,07,25,01,35,21.30
2016,07,25,01,36,21.30
2016,07,25,01,37,21.30
2016,07,25,01,38,21.40
2016,07,25,01,39,21.40
2016,07,25,01,40,21.40
2016,07,25,01,41,21.40
2016,07,25,01,42,21.40
2016,07,25,01,43,21.40
2016,07,25,01,44,21.40
2016,07,25,01,45,21.40
2016,07,25,01,46,21.40
2016,07,25,01,47,21.40
2016,07,25,01,48,21.40
2016,07,25,01,49,21.40
2016,07,25,01,50,21.40
2016,07,25,01,51,21.30
2016,07,25,01,52,21.30
2016,07,25,01,53,21.30
2016,07,25,01,54,21.30
2016,07,25,01,55,21.30
2016,07,25,01,56,21.20
2016,07,25,01,57,21.20
2016,07,25,01,58,21.20
2016,07,25,01,59,21.20
2016,07,25,02,00,21.20
2016,07,25,02,01,21.20
2016,07,25,02,02,21.10
2016,07,25,02,03,21.10
2016,07,25,02,04,21.10
2016,07,25,02,05,21.10
2016,07,25,02,06,21.00
2016,07,25,02,07,21.00
2016,07,25,02,08,21.00
2016,07,25,02,09,20.90
2016,07,25,02,10,20.90
2016,07,25,02,11,20.90
2016,07,25,02,12,20.90
2016,07,25,02,13,20.90
2016,07,25,02,14,20.80
2016,07,25,02,15,20.80
2016,07,25,02,16,20.80
2016,07,25,02,17,20.80
2016,07,25,02,18,20.80
2016,07,25,02,19,20.80
2016,07,25,02,20,20.80
2016,07,25,02,21,20.80
2016,07,25,02,22,20.80
2016,07,25,02,23,20.80
2016,07,25,02,24,20.80
2016,07,25,02,25,20.80
2016,07,25,02,26,20.70
2016,07,25,02,27,20.70
2016,07,25,02,28,20.70
2016,07,25,02,29,20.70
2016,07,25,02,30,20.70
2016,07,25,02,31,20.70
2016,07,25,02,32,20.60
2016,07,25,02,33,20.60
2016,07,25,02,34,20.60
2016,07,25,02,35,20.60
2016,07,25,02,36,20.60
2016,07,25,02,37,20.60
2016,07,25,02,38,20.60
2016,07,25,02,39,20.60
2016,07,25,02,40,20.60
2016,07,25,02,41,20.60
2016,07,25,02,42,20.60
2016,07,25,02,43,20.60
2016,07,25,02,44,20.60
2016,07,25,02,45,20.60
2016,07,25,02,46,20.60
2016,07,25,02,47,20.60
2016,07,25,02,48,20.60
2016,07,25,02,49,20.60
2016,07,25,02,50,20.60
2016,07,25,02,51,20.70
2016,07,25,02,52,20.70
2016,07,25,02,53,20.70
2016,07,25,02,54,20.70
2016,07,25,02,55,20.70
2016,07,25,02,56,20.70
2016,07,25,02,57,20.70
2016,07,25,02,58,20.70
2016,07,25,02,59,20.70
2016,07,25,03,00,20.70
2016,07,25,03,01,20.70
2016,07,25,03,02,20.70
2016,07,25,03,03,20.70
2016,07,25,03,04,20.70
2016,07,25,03,05,20.70
2016,07,25,03,06,20.70
2016,07,25,03,07,20.70
2016,07,25,03,08,20.60
2016,07,25,03,09,20.60
2016,07,25,03,10,20.60
2016,07,25,03,11,20.60
2016,07,25,03,12,20.60
2016,07,25,03,13,20.60
2016,07,25,03,14,20.60
2016,07,25,03,15,20.60
2016,07,25,03,16,20.60
2016,07,25,03,17,20.60
2016,07,25,03,18,20.50
2016,07,25,03,19,20.50
2016,07,25,03,20,20.50
2016,07,25,03,21,20.50
2016,07,25,03,22,20.50
2016,07,25,03,23,20.50
2016,07,25,03,24,20.50
2016,07,25,03,25,20.50
2016,07,25,03,26,20.50
2016,07,25,03,27,20.50
2016,07,25,03,28,20.50
2016,07,25,03,29,20.50
2016,07,25,03,30,20.50
2016,07,25,03,31,20.50
2016,07,25,03,32,20.50
2016,07,25,03,33,20.50
2016,07,25,03,34,20.50
2016,07,25,03,35,20.50
2016,07,25,03,36,20.40
2016,07,25,03,37,20.40
2016,07,25,03,38,20.40
2016,07,25,03,39,20.40
2016,07,25,03,40,20.40
2016,07,25,03,41,20.40
2016,07,25,03,42,20.40
2016,07,25,03,43,20.40
2016,07,25,03,44,20.40
2016,07,25,03,45,20.40
2016,07,25,03,46,20.40
2016,07,25,03,47,20.40
2016,07,25,03,48,20.40
2016,07,25,03,49,20.40
2016,07,25,03,50,20.40
2016,07,25,03,51,20.40
2016,07,25,03,52,20.40
2016,07,25,03,53,20.40
2016,07,25,03,54,20.40
2016,07,25,03,55,20.30
2016,07,25,03,56,20.30
2016,07,25,03,57,20.30
2016,07,25,03,58,20.30
2016,07,25,03,59,20.30
2016,07,25,04,00,20.30
2016,07,25,04,01,20.30
2016,07,25,04,02,20.30
2016,07,25,04,03,20.20
2016,07,25,04,04,20.20
2016,07,25,04,05,20.20
2016,07,25,04,06,20.20
2016,07,25,04,07,20.20
2016,07,25,04,08,20.20
2016,07,25,04,09,20.20
2016,07,25,04,10,20.20
2016,07,25,04,11,20.20
2016,07,25,04,12,20.20
2016,07,25,04,13,20.20
2016,07,25,04,14,20.20
2016,07,25,04,15,20.20
2016,07,25,04,16,20.20
2016,07,25,04,17,20.20
2016,07,25,04,18,20.10
2016,07,25,04,19,20.10
2016,07,25,04,20,20.10
2016,07,25,04,21,20.10
2016,07,25,04,22,20.10
2016,07,25,04,23,20.10
2016,07,25,04,24,20.10
2016,07,25,04,25,20.00
2016,07,25,04,26,20.00
2016,07,25,04,27,20.00
2016,07,25,04,28,20.00
2016,07,25,04,29,20.00
2016,07,25,04,30,20.00
2016,07,25,04,31,20.00
2016,07,25,04,32,19.90
2016,07,25,04,33,19.90
2016,07,25,04,34,19.90
2016,07,25,04,35,19.90
2016,07,25,04,36,19.90
2016,07,25,04,37,19.90
2016,07,25,04,38,19.90
2016,07,25,04,39,19.90
2016,07,25,04,40,19.80
2016,07,25,04,41,19.80
2016,07,25,04,42,19.80
2016,07,25,04,43,19.80
2016,07,25,04,44,19.80
2016,07,25,04,45,19.80
2016,07,25,04,46,19.80
2016,07,25,04,47,19.80
2016,07,25,04,48,19.80
2016,07,25,04,49,19.80
2016,07,25,04,50,19.80
2016,07,25,04,51,19.80
2016,07,25,04,52,19.80
2016,07,25,04,53,19.80
2016,07,25,04,54,19.80
2016,07,25,04,55,19.80
2016,07,25,04,56,19.70
2016,07,25,04,57,19.70
2016,07,25,04,58,19.70
2016,07,25,04,59,19.70
2016,07,25,05,00,19.70
2016,07,25,05,01,19.70
2016,07,25,05,02,19.70
2016,07,25,05,03,19.70
2016,07,25,05,04,19.80
2016,07,25,05,05,19.80
2016,07,25,05,06,19.80
2016,07,25,05,07,19.80
2016,07,25,05,08,19.80
2016,07,25,05,09,19.80
2016,07,25,05,10,19.80
2016,07,25,05,11,19.80
2016,07,25,05,12,19.80
2016,07,25,05,13,19.80
2016,07,25,05,14,19.80
2016,07,25,05,15,19.80
2016,07,25,05,16,19.80
2016,07,25,05,17,19.80
2016,07,25,05,18,19.80
2016,07,25,05,19,19.80
2016,07,25,05,20,19.80
2016,07,25,05,21,19.80
2016,07,25,05,22,19.80
2016,07,25,05,23,19.80
2016,07,25,05,24,19.70
2016,07,25,05,25,19.70
2016,07,25,05,26,19.70
2016,07,25,05,27,19.70
2016,07,25,05,28,19.70
2016,07,25,05,29,19.70
2016,07,25,05,30,19.70
2016,07,25,05,31,19.70
2016,07,25,05,32,19.70
2016,07,25,05,33,19.70
2016,07,25,05,34,19.70
2016,07,25,05,35,19.60
2016,07,25,05,36,19.60
2016,07,25,05,37,19.60
2016,07,25,05,38,19.60
2016,07,25,05,39,19.60
2016,07,25,05,40,19.60
2016,07,25,05,41,19.60
2016,07,25,05,42,19.50
2016,07,25,05,43,19.50
2016,07,25,05,44,19.50
2016,07,25,05,45,19.50
2016,07,25,05,46,19.50
2016,07,25,05,47,19.50
2016,07,25,05,48,19.50
2016,07,25,05,49,19.50
2016,07,25,05,50,19.40
2016,07,25,05,51,19.40
2016,07,25,05,52,19.40
2016,07,25,05,53,19.40
2016,07,25,05,54,19.40
2016,07,25,05,55,19.40
2016,07,25,05,56,19.40
2016,07,25,05,57,19.40
2016,07,25,05,58,19.40
2016,07,25,05,59,19.40
2016,07,25,06,00,19.30
2016,07,25,06,01,19.30
2016,07,25,06,02,19.30
2016,07,25,06,03,19.30
2016,07,25,06,04,19.30
2016,07,25,06,05,19.30
2016,07,25,06,06,19.30
2016,07,25,06,07,19.30
2016,07,25,06,08,19.30
2016,07,25,06,09,19.30
2016,07,25,06,10,19.30
2016,07,25,06,11,19.20
2016,07,25,06,12,19.20
2016,07,25,06,13,19.20
2016,07,25,06,14,19.20
2016,07,25,06,15,19.20
2016,07,25,06,16,19.20
2016,07,25,06,17,19.20
2016,07,25,06,18,19.20
2016,07,25,06,19,19.20
2016,07,25,06,20,19.20
2016,07,25,06,21,19.10
2016,07,25,06,22,19.10
2016,07,25,06,23,19.10
2016,07,25,06,24,19.10
2016,07,25,06,25,19.10
2016,07,25,06,26,19.10
2016,07,25,06,27,19.10
2016,07,25,06,28,19.10
2016,07,25,06,29,19.10
2016,07,25,06,30,19.00
2016,07,25,06,31,19.00
2016,07,25,06,32,19.00
2016,07,25,06,33,19.00
2016,07,25,06,34,19.00
2016,07,25,06,35,19.00
2016,07,25,06,36,19.00
2016,07,25,06,37,19.00
2016,07,25,06,38,19.00
2016,07,25,06,39,19.00
2016,07,25,06,40,19.00
2016,07,25,06,41,19.00
2016,07,25,06,42,19.00
2016,07,25,06,43,19.00
2016,07,25,06,44,18.90
2016,07,25,06,45,18.90
2016,07,25,06,46,18.90
2016,07,25,06,47,18.90
2016,07,25,06,48,18.90
2016,07,25,06,49,18.90
2016,07,25,06,50,18.90
2016,07,25,06,51,18.90
2016,07,25,06,52,18.90
2016,07,25,06,53,18.90
2016,07,25,06,54,18.90
2016,07,25,06,55,18.90
2016,07,25,06,56,18.90
2016,07,25,06,57,18.90
2016,07,25,06,58,18.90
2016,07,25,06,59,18.90
2016,07,25,07,00,18.90
2016,07,25,07,01,18.90
2016,07,25,07,02,18.90
2016,07,25,07,03,18.90
2016,07,25,07,04,18.90
2016,07,25,07,05,18.90
2016,07,25,07,06,18.90
2016,07,25,07,07,18.90
2016,07,25,07,08,18.90
2016,07,25,07,09,18.90
2016,07,25,07,10,19.00
2016,07,25,07,11,19.00
2016,07,25,07,12,19.00
2016,07,25,07,13,19.00
2016,07,25,07,14,19.00
2016,07,25,07,15,19.00
2016,07,25,07,16,19.00
2016,07,25,07,17,19.00
2016,07,25,07,18,19.00
2016,07,25,07,19,19.00
2016,07,25,07,20,19.00
2016,07,25,07,21,19.00
2016,07,25,07,22,19.00
2016,07,25,07,23,19.00
2016,07,25,07,24,19.00
2016,07,25,07,25,19.00
2016,07,25,07,26,19.00
2016,07,25,07,27,19.00
2016,07,25,07,28,19.00
2016,07,25,07,29,19.00
2016,07,25,07,30,19.00
2016,07,25,07,31,19.00
2016,07,25,07,32,19.00
2016,07,25,07,33,19.00
2016,07,25,07,34,19.00
2016,07,25,07,35,19.00
2016,07,25,07,36,19.10
2016,07,25,07,37,19.10
2016,07,25,07,38,19.10
2016,07,25,07,39,19.10
2016,07,25,07,40,19.10
2016,07,25,07,41,19.10
2016,07,25,07,42,19.10
2016,07,25,07,43,19.10
2016,07,25,07,44,19.10
2016,07,25,07,45,19.10
2016,07,25,07,46,19.10
2016,07,25,07,47,19.10
2016,07,25,07,48,19.10
2016,07,25,07,49,19.10
2016,07,25,07,50,19.10
2016,07,25,07,51,19.10
2016,07,25,07,52,19.20
2016,07,25,07,53,19.20
2016,07,25,07,54,19.20
2016,07,25,07,55,19.20
2016,07,25,07,56,19.30
2016,07,25,07,57,19.30
2016,07,25,07,58,19.40
2016,07,25,07,59,19.40
2016,07,25,08,00,19.50
2016,07,25,08,01,19.60
2016,07,25,08,02,19.70
2016,07,25,08,03,19.80
2016,07,25,08,04,19.90
2016,07,25,08,05,20.00
2016,07,25,08,06,20.20
2016,07,25,08,07,20.30
2016,07,25,08,08,20.40
2016,07,25,08,09,20.50
2016,07,25,08,10,20.60
2016,07,25,08,11,20.70
2016,07,25,08,12,20.80
2016,07,25,08,13,20.90
2016,07,25,08,14,21.00
2016,07,25,08,15,21.00
2016,07,25,08,16,21.10
2016,07,25,08,17,21.10
2016,07,25,08,18,21.10
2016,07,25,08,19,21.10
2016,07,25,08,20,21.10
2016,07,25,08,21,21.10
2016,07,25,08,22,21.10
2016,07,25,08,23,21.20
2016,07,25,08,24,21.20
2016,07,25,08,25,21.20
2016,07,25,08,26,21.30
2016,07,25,08,27,21.40
2016,07,25,08,28,21.40
2016,07,25,08,29,21.40
2016,07,25,08,30,21.50
2016,07,25,08,31,21.50
2016,07,25,08,32,21.50
2016,07,25,08,33,21.50
2016,07,25,08,34,21.50
2016,07,25,08,35,21.40
2016,07,25,08,36,21.40
2016,07,25,08,37,21.30
2016,07,25,08,38,21.30
2016,07,25,08,39,21.30
2016,07,25,08,40,21.30
2016,07,25,08,41,21.30
2016,07,25,08,42,21.30
2016,07,25,08,43,21.30
2016,07,25,08,44,21.20
2016,07,25,08,45,21.10
2016,07,25,08,46,21.10
2016,07,25,08,47,21.00
2016,07,25,08,48,21.00
2016,07,25,08,49,20.90
2016,07,25,08,50,20.90
2016,07,25,08,51,20.90
2016,07,25,08,52,20.90
2016,07,25,08,53,20.80
2016,07,25,08,54,20.80
2016,07,25,08,55,20.80
2016,07,25,08,56,20.80
2016,07,25,08,57,20.70
2016,07,25,08,58,20.70
2016,07,25,08,59,20.70
2016,07,25,09,00,20.80
2016,07,25,09,01,20.80
2016,07,25,09,02,20.80
2016,07,25,09,03,20.90
2016,07,25,09,04,21.00
2016,07,25,09,05,21.10
2016,07,25,09,06,21.10
2016,07,25,09,07,21.20
2016,07,25,09,08,21.20
2016,07,25,09,09,21.20
2016,07,25,09,10,21.20
2016,07,25,09,11,21.20
2016,07,25,09,12,21.20
2016,07,25,09,13,21.20
2016,07,25,09,14,21.20
2016,07,25,09,15,21.20
2016,07,25,09,16,21.20
2016,07,25,09,17,21.20
2016,07,25,09,18,21.20
2016,07,25,09,19,21.20
2016,07,25,09,20,21.30
2016,07,25,09,21,21.30
2016,07,25,09,22,21.30
2016,07,25,09,23,21.30
2016,07,25,09,24,21.30
2016,07,25,09,25,21.40
2016,07,25,09,26,21.50
2016,07,25,09,27,21.60
2016,07,25,09,28,21.60
2016,07,25,09,29,21.60
2016,07,25,09,30,21.70
2016,07,25,09,31,21.70
2016,07,25,09,32,21.70
2016,07,25,09,33,21.80
2016,07,25,09,34,21.80
2016,07,25,09,35,21.80
2016,07,25,09,36,21.80
2016,07,25,09,37,21.80
2016,07,25,09,38,21.80
2016,07,25,09,39,21.80
2016,07,25,09,40,21.80
2016,07,25,09,41,21.80
2016,07,25,09,42,21.70
2016,07,25,09,43,21.70
2016,07,25,09,44,21.70
2016,07,25,09,45,21.70
2016,07,25,09,46,21.70
2016,07,25,09,47,21.70
2016,07,25,09,48,21.70
2016,07,25,09,49,21.70
2016,07,25,09,50,21.70
2016,07,25,09,51,21.70
2016,07,25,09,52,21.80
2016,07,25,09,53,21.80
2016,07,25,09,54,21.80
2016,07,25,09,55,21.90
2016,07,25,09,56,21.90
2016,07,25,09,57,21.90
2016,07,25,09,58,21.80
2016,07,25,09,59,21.80
2016,07,25,10,00,21.80
2016,07,25,10,01,21.80
2016,07,25,10,02,21.80
2016,07,25,10,03,21.80
2016,07,25,10,04,21.80
2016,07,25,10,05,21.80
2016,07,25,10,06,21.80
2016,07,25,10,07,21.80
2016,07,25,10,08,21.80
2016,07,25,10,09,21.80
2016,07,25,10,10,21.80
2016,07,25,10,11,21.80
2016,07,25,10,12,21.80
2016,07,25,10,13,21.80
2016,07,25,10,14,21.80
2016,07,25,10,15,21.80
2016,07,25,10,16,21.80
2016,07,25,10,17,21.80
2016,07,25,10,18,21.80
2016,07,25,10,19,21.80
2016,07,25,10,20,21.70
2016,07,25,10,21,21.80
2016,07,25,10,22,21.80
2016,07,25,10,23,21.80
2016,07,25,10,24,21.80
2016,07,25,10,25,21.80
2016,07,25,10,26,21.80
2016,07,25,10,27,21.80
2016,07,25,10,28,21.80
2016,07,25,10,29,21.90
2016,07,25,10,30,22.00
2016,07,25,10,31,22.20
2016,07,25,10,32,22.30
2016,07,25,10,33,22.30
2016,07,25,10,34,22.40
2016,07,25,10,35,22.50
2016,07,25,10,36,22.50
2016,07,25,10,37,22.60
2016,07,25,10,38,22.60
2016,07,25,10,39,22.60
2016,07,25,10,40,22.60
2016,07,25,10,41,22.60
2016,07,25,10,42,22.60
2016,07,25,10,43,22.60
2016,07,25,10,44,22.60
2016,07,25,10,45,22.50
2016,07,25,10,46,22.50
2016,07,25,10,47,22.40
2016,07,25,10,48,22.40
2016,07,25,10,49,22.40
2016,07,25,10,50,22.40
2016,07,25,10,51,22.50
2016,07,25,10,52,22.60
2016,07,25,10,53,22.60
2016,07,25,10,54,22.70
2016,07,25,10,55,22.70
2016,07,25,10,56,22.70
2016,07,25,10,57,22.80
2016,07,25,10,58,22.80
2016,07,25,10,59,22.80
2016,07,25,11,00,22.80
2016,07,25,11,01,22.80
2016,07,25,11,02,22.80
2016,07,25,11,03,22.70
2016,07,25,11,04,22.70
2016,07,25,11,05,22.70
2016,07,25,11,06,22.70
2016,07,25,11,07,22.70
2016,07,25,11,08,22.60
2016,07,25,11,09,22.60
2016,07,25,11,10,22.50
2016,07,25,11,11,22.40
2016,07,25,11,12,22.40
2016,07,25,11,13,22.40
2016,07,25,11,14,22.40
2016,07,25,11,15,22.40
2016,07,25,11,16,22.40
2016,07,25,11,17,22.40
2016,07,25,11,18,22.40
2016,07,25,11,19,22.40
2016,07,25,11,20,22.40
2016,07,25,11,21,22.30
2016,07,25,11,22,22.30
2016,07,25,11,23,22.30
2016,07,25,11,24,22.30
2016,07,25,11,25,22.30
2016,07,25,11,26,22.30
2016,07,25,11,27,22.30
2016,07,25,11,28,22.30
2016,07,25,11,29,22.30
2016,07,25,11,30,22.30
2016,07,25,11,31,22.30
2016,07,25,11,32,22.30
2016,07,25,11,33,22.30
2016,07,25,11,34,22.20
2016,07,25,11,35,22.20
2016,07,25,11,36,22.20
2016,07,25,11,37,22.20
2016,07,25,11,38,22.30
2016,07,25,11,39,22.30
2016,07,25,11,40,22.30
2016,07,25,11,41,22.30
2016,07,25,11,42,22.30
2016,07,25,11,43,22.40
2016,07,25,11,44,22.40
2016,07,25,11,45,22.40
2016,07,25,11,46,22.40
2016,07,25,11,47,22.30
2016,07,25,11,48,22.30
2016,07,25,11,49,22.30
2016,07,25,11,50,22.30
2016,07,25,11,51,22.30
2016,07,25,11,52,22.30
2016,07,25,11,53,22.30
2016,07,25,11,54,22.30
2016,07,25,11,55,22.30
2016,07,25,11,56,22.40
2016,07,25,11,57,22.50
2016,07,25,11,58,22.60
2016,07,25,11,59,22.60
2016,07,25,12,00,22.60
2016,07,25,12,01,22.70
2016,07,25,12,02,22.80
2016,07,25,12,03,22.90
2016,07,25,12,04,22.90
2016,07,25,12,05,23.00
2016,07,25,12,06,23.00
2016,07,25,12,07,23.10
2016,07,25,12,08,23.10
2016,07,25,12,09,23.20
2016,07,25,12,10,23.30
2016,07,25,12,11,23.30
2016,07,25,12,12,23.30
2016,07,25,12,13,23.30
2016,07,25,12,14,23.40
2016,07,25,12,15,23.40
2016,07,25,12,16,23.40
2016,07,25,12,17,23.40
2016,07,25,12,18,23.40
2016,07,25,12,19,23.50
2016,07,25,12,20,23.50
2016,07,25,12,21,23.50
2016,07,25,12,22,23.50
2016,07,25,12,23,23.50
2016,07,25,12,24,23.40
2016,07,25,12,25,23.30
2016,07,25,12,26,23.20
2016,07,25,12,27,23.20
2016,07,25,12,28,23.10
2016,07,25,12,29,23.20
2016,07,25,12,30,23.20
2016,07,25,12,31,23.20
2016,07,25,12,32,23.20
2016,07,25,12,33,23.30
2016,07,25,12,34,23.30
2016,07,25,12,35,23.30
2016,07,25,12,36,23.20
2016,07,25,12,37,23.20
2016,07,25,12,38,23.20
2016,07,25,12,39,23.20
2016,07,25,12,40,23.20
2016,07,25,12,41,23.30
2016,07,25,12,42,23.20
2016,07,25,12,43,23.20
2016,07,25,12,44,23.20
2016,07,25,12,45,23.20
2016,07,25,12,46,23.10
2016,07,25,12,47,23.00
2016,07,25,12,48,22.90
2016,07,25,12,49,22.90
2016,07,25,12,50,22.80
2016,07,25,12,51,22.80
2016,07,25,12,52,22.80
2016,07,25,12,53,22.80
2016,07,25,12,54,22.80
2016,07,25,12,55,22.70
2016,07,25,12,56,22.70
2016,07,25,12,57,22.80
2016,07,25,12,58,22.90
2016,07,25,12,59,23.00
2016,07,25,13,00,23.20
2016,07,25,13,01,23.30
2016,07,25,13,02,23.40
2016,07,25,13,03,23.40
2016,07,25,13,04,23.50
2016,07,25,13,05,23.60
2016,07,25,13,06,23.60
2016,07,25,13,07,23.60
2016,07,25,13,08,23.60
2016,07,25,13,09,23.70
2016,07,25,13,10,23.70
2016,07,25,13,11,23.70
2016,07,25,13,12,23.70
2016,07,25,13,13,23.70
2016,07,25,13,14,23.70
2016,07,25,13,15,23.80
2016,07,25,13,16,23.80
2016,07,25,13,17,23.90
2016,07,25,13,18,23.90
2016,07,25,13,19,24.00
2016,07,25,13,20,24.10
2016,07,25,13,21,24.20
2016,07,25,13,22,24.20
2016,07,25,13,23,24.20
2016,07,25,13,24,24.20
2016,07,25,13,25,24.20
2016,07,25,13,26,24.20
2016,07,25,13,27,24.10
2016,07,25,13,28,24.10
2016,07,25,13,29,24.10
2016,07,25,13,30,24.10
2016,07,25,13,31,24.00
2016,07,25,13,32,23.90
2016,07,25,13,33,23.80
2016,07,25,13,34,23.80
2016,07,25,13,35,23.90
2016,07,25,13,36,23.90
2016,07,25,13,37,24.00
2016,07,25,13,38,24.10
2016,07,25,13,39,24.10
2016,07,25,13,40,24.20
2016,07,25,13,41,24.20
2016,07,25,13,42,24.30
2016,07,25,13,43,24.40
2016,07,25,13,44,24.50
2016,07,25,13,45,24.60
2016,07,25,13,46,24.70
2016,07,25,13,47,24.60
2016,07,25,13,48,24.60
2016,07,25,13,49,24.50
2016,07,25,13,50,24.40
2016,07,25,13,51,24.40
2016,07,25,13,52,24.40
2016,07,25,13,53,24.30
2016,07,25,13,54,24.30
2016,07,25,13,55,24.30
2016,07,25,13,56,24.30
2016,07,25,13,57,24.30
2016,07,25,13,58,24.30
2016,07,25,13,59,24.30
2016,07,25,14,00,24.30
2016,07,25,14,01,24.40
2016,07,25,14,02,24.40
2016,07,25,14,03,24.40
2016,07,25,14,04,24.50
2016,07,25,14,05,24.50
2016,07,25,14,06,24.50
2016,07,25,14,07,24.60
2016,07,25,14,08,24.60
2016,07,25,14,09,24.60
2016,07,25,14,10,24.60
2016,07,25,14,11,24.60
2016,07,25,14,12,24.60
2016,07,25,14,13,24.60
2016,07,25,14,14,24.70
2016,07,25,14,15,24.70
2016,07,25,14,16,24.70
2016,07,25,14,17,24.60
2016,07,25,14,18,24.60
2016,07,25,14,19,24.70
2016,07,25,14,20,24.70
2016,07,25,14,21,24.70
2016,07,25,14,22,24.60
2016,07,25,14,23,24.60
2016,07,25,14,24,24.70
2016,07,25,14,25,24.70
2016,07,25,14,26,24.70
2016,07,25,14,27,24.70
2016,07,25,14,28,24.70
2016,07,25,14,29,24.70
2016,07,25,14,30,24.70
2016,07,25,14,31,24.70
2016,07,25,14,32,24.70
2016,07,25,14,33,24.70
2016,07,25,14,34,24.70
2016,07,25,14,35,24.70
2016,07,25,14,36,24.70
2016,07,25,14,37,24.80
2016,07,25,14,38,24.80
2016,07,25,14,39,24.80
2016,07,25,14,40,24.80
2016,07,25,14,41,24.90
2016,07,25,14,42,25.00
2016,07,25,14,43,25.00
2016,07,25,14,44,25.10
2016,07,25,14,45,25.20
2016,07,25,14,46,25.10
2016,07,25,14,47,25.10
2016,07,25,14,48,25.10
2016,07,25,14,49,25.10
2016,07,25,14,50,25.10
2016,07,25,14,51,25.00
2016,07,25,14,52,25.00
2016,07,25,14,53,24.90
2016,07,25,14,54,24.90
2016,07,25,14,55,24.90
2016,07,25,14,56,24.90
2016,07,25,14,57,25.00
2016,07,25,14,58,25.10
2016,07,25,14,59,25.10
2016,07,25,15,00,25.10
2016,07,25,15,01,25.10
2016,07,25,15,02,25.10
2016,07,25,15,03,25.00
2016,07,25,15,04,25.00
2016,07,25,15,05,24.90
2016,07,25,15,06,24.90
2016,07,25,15,07,24.90
2016,07,25,15,08,24.90
2016,07,25,15,09,24.90
2016,07,25,15,10,24.90
2016,07,25,15,11,25.00
2016,07,25,15,12,25.10
2016,07,25,15,13,25.10
2016,07,25,15,14,25.00
2016,07,25,15,15,25.00
2016,07,25,15,16,24.90
2016,07,25,15,17,24.90
2016,07,25,15,18,24.90
2016,07,25,15,19,24.90
2016,07,25,15,20,24.90
2016,07,25,15,21,24.90
2016,07,25,15,22,25.00
2016,07,25,15,23,25.10
2016,07,25,15,24,25.20
2016,07,25,15,25,25.30
2016,07,25,15,26,25.30
2016,07,25,15,27,25.40
2016,07,25,15,28,25.40
2016,07,25,15,29,25.50
2016,07,25,15,30,25.50
2016,07,25,15,31,25.60
2016,07,25,15,32,25.60
2016,07,25,15,33,25.60
2016,07,25,15,34,25.70
2016,07,25,15,35,25.80
2016,07,25,15,36,25.90
2016,07,25,15,37,25.90
2016,07,25,15,38,25.90
2016,07,25,15,39,25.90
2016,07,25,15,40,25.90
2016,07,25,15,41,25.90
2016,07,25,15,42,25.90
2016,07,25,15,43,25.90
2016,07,25,15,44,25.90
2016,07,25,15,45,25.90
2016,07,25,15,46,25.90
2016,07,25,15,47,25.90
2016,07,25,15,48,25.90
2016,07,25,15,49,25.90
2016,07,25,15,50,25.90
2016,07,25,15,51,25.90
2016,07,25,15,52,25.80
2016,07,25,15,53,25.80
2016,07,25,15,54,25.80
2016,07,25,15,55,25.90
2016,07,25,15,56,25.90
2016,07,25,15,57,25.80
2016,07,25,15,58,25.70
2016,07,25,15,59,25.60
2016,07,25,16,00,25.50
2016,07,25,16,01,25.50
2016,07,25,16,02,25.50
2016,07,25,16,03,25.50
2016,07,25,16,04,25.50
2016,07,25,16,05,25.50
2016,07,25,16,06,25.50
2016,07,25,16,07,25.50
2016,07,25,16,08,25.50
2016,07,25,16,09,25.50
2016,07,25,16,10,25.50
2016,07,25,16,11,25.40
2016,07,25,16,12,25.40
2016,07,25,16,13,25.40
2016,07,25,16,14,25.40
2016,07,25,16,15,25.40
2016,07,25,16,16,25.40
2016,07,25,16,17,25.30
2016,07,25,16,18,25.30
2016,07,25,16,19,25.30
2016,07,25,16,20,25.40
2016,07,25,16,21,25.40
2016,07,25,16,22,25.50
2016,07,25,16,23,25.60
2016,07,25,16,24,25.70
2016,07,25,16,25,25.80
2016,07,25,16,26,25.90
2016,07,25,16,27,25.90
2016,07,25,16,28,25.90
2016,07,25,16,29,25.90
2016,07,25,16,30,25.90
2016,07,25,16,31,25.80
2016,07,25,16,32,25.80
2016,07,25,16,33,25.80
2016,07,25,16,34,25.80
2016,07,25,16,35,25.80
2016,07,25,16,36,25.80
2016,07,25,16,37,25.80
2016,07,25,16,38,25.80
2016,07,25,16,39,25.80
2016,07,25,16,40,25.80
2016,07,25,16,41,25.90
2016,07,25,16,42,25.90
2016,07,25,16,43,26.00
2016,07,25,16,44,26.00
2016,07,25,16,45,26.10
2016,07,25,16,46,26.10
2016,07,25,16,47,26.10
2016,07,25,16,48,26.10
2016,07,25,16,49,26.10
2016,07,25,16,50,26.00
2016,07,25,16,51,26.10
2016,07,25,16,52,26.10
2016,07,25,16,53,26.10
2016,07,25,16,54,26.20
2016,07,25,16,55,26.30
2016,07,25,16,56,26.40
2016,07,25,16,57,26.50
2016,07,25,16,58,26.60
2016,07,25,16,59,26.60
2016,07,25,17,00,26.50
2016,07,25,17,01,26.50
2016,07,25,17,02,26.60
2016,07,25,17,03,26.60
2016,07,25,17,04,26.60
2016,07,25,17,05,26.60
2016,07,25,17,06,26.70
2016,07,25,17,07,26.80
2016,07,25,17,08,26.90
2016,07,25,17,09,26.90
2016,07,25,17,10,27.00
2016,07,25,17,11,27.20
2016,07,25,17,12,27.30
2016,07,25,17,13,27.40
2016,07,25,17,14,27.50
2016,07,25,17,15,27.50
2016,07,25,17,16,27.60
2016,07,25,17,17,27.60
2016,07,25,17,18,27.60
2016,07,25,17,19,27.50